FW9881 Weather Reports


time (UTC)temp
F
wind
direction
speed
knots
gust
knots
rain 1hr
in
rain 24hr
in
rain mn
in
humidity
%
barometer
mb
20260509094917 32 157 0.0 0.0 0.00 0.00 0.00 91 1017.1
20260509093916 32 157 0.0 0.0 0.00 0.00 0.00 92 1017.1
20260509093818 32 157 0.0 0.0 0.00 0.00 0.00 91 1017.1
20260509092817 32 157 0.9 1.7 0.00 0.00 0.00 92 1017.1
20260509091916 32 157 0.0 0.0 0.00 0.00 0.00 92 1016.9
20260509090919 32 157 0.0 0.0 0.00 0.00 0.00 90 1016.8
20260509090015 31 157 0.0 0.0 0.00 0.00 0.00 90 1016.7
20260509085918 31 157 0.0 0.0 0.00 0.00 0.00 91 1016.9
20260509084938 31 157 0.0 0.0 0.00 0.00 0.00 91 1016.8
20260509082937 30 157 0.9 1.7 0.00 0.00 0.00 91 1016.4
20260509081938 30 157 0.0 0.0 0.00 0.00 0.00 91 1016.5
20260509081036 31 157 0.0 0.0 0.00 0.00 0.00 91 1016.4
20260509080039 31 157 0.0 0.9 0.00 0.00 0.00 90 1016.4
20260509075136 31 180 0.9 0.9 0.00 0.00 0.00 91 1016.3
20260509074137 31 180 0.0 0.0 0.00 0.00 0.00 90 1016.5
20260509073136 31 180 0.0 0.0 0.00 0.00 0.00 89 1016.5
20260509073037 31 180 0.0 0.0 0.00 0.00 0.00 89 1016.5
20260509072038 32 180 0.0 0.0 0.00 0.00 0.00 89 1016.6
20260509071936 32 180 0.0 0.0 0.00 0.00 0.00 89 1016.6
20260509065953 32 180 0.0 0.0 0.00 0.00 0.00 88 1016.3
20260509064936 32 180 0.0 0.0 0.00 0.00 0.00 88 1016.5
20260509062938 33 22 0.0 0.0 0.00 0.00 0.00 88 1016.6
20260509061938 34 22 0.0 0.9 0.00 0.00 0.00 87 1016.6
20260509061036 34 22 0.9 1.7 0.00 0.00 0.00 87 1016.7
20260509060937 34 337 0.0 1.7 0.00 0.00 0.00 87 1016.7
20260509055936 34 315 0.0 0.0 0.00 0.00 0.00 85 1016.8
20260509053135 35 315 0.0 0.0 0.00 0.00 0.00 84 1016.9
20260509052151 35 315 0.0 0.0 0.00 0.00 0.00 82 1016.7
20260509051235 36 315 0.0 0.0 0.00 0.00 0.00 82 1016.6
20260509050239 36 315 0.0 0.0 0.00 0.00 0.00 81 1016.7
20260509045335 36 315 0.0 0.0 0.00 0.00 0.00 80 1016.5
20260509045237 37 315 0.0 0.0 0.00 0.00 0.00 80 1016.5
20260509043235 37 315 0.0 0.0 0.00 0.00 0.00 79 1016.5
20260509042236 38 315 0.0 0.0 0.00 0.00 0.00 77 1016.4
20260509041335 38 315 0.0 0.0 0.00 0.00 0.00 77 1016.4
20260509040238 39 315 0.0 0.0 0.00 0.00 0.00 75 1016.3
20260509035246 39 225 0.0 0.0 0.00 0.00 0.00 74 1016.3
20260509032247 40 281 0.0 1.7 0.00 0.00 0.00 74 1016.3
20260509025347 40 112 0.0 0.0 0.00 0.00 0.00 72 1016.0
20260509024345 41 112 0.0 0.0 0.00 0.00 0.00 70 1015.8
20260509023345 41 112 0.0 0.0 0.00 0.00 0.00 70 1016.0
20260509023244 41 112 0.0 0.0 0.00 0.00 0.00 69 1016.0
20260509022246 42 112 0.9 0.9 0.00 0.00 0.00 68 1015.9
20260509021344 43 112 0.0 0.9 0.00 0.00 0.00 66 1015.8
20260509020345 44 112 0.0 0.9 0.00 0.00 0.00 64 1015.7
20260509015444 45 22 0.9 0.9 0.00 0.00 0.00 61 1015.5
20260509014445 46 270 0.0 0.9 0.00 0.00 0.00 59 1015.5
20260509014344 46 270 0.0 0.9 0.00 0.00 0.00 59 1015.4
20260509012345 46 263 1.7 3.5 0.00 0.00 0.00 59 1015.1
20260509011346 46 254 0.9 1.7 0.00 0.00 0.00 59 1015.0
20260509010347 46 242 1.7 4.3 0.00 0.00 0.00 58 1015.0
20260509005347 47 247 0.9 1.7 0.00 0.00 0.00 57 1014.6
20260509004444 47 247 0.9 1.7 0.00 0.00 0.00 56 1014.4
20260509004347 47 247 0.9 1.7 0.00 0.00 0.00 56 1014.5
20260509003347 47 247 0.9 1.7 0.00 0.00 0.00 56 1014.4
20260509002345 47 253 1.7 2.6 0.00 0.00 0.00 55 1014.3
20260509001346 47 311 0.9 1.7 0.00 0.00 0.00 55 1014.1
20260509000444 48 246 2.6 4.3 0.00 0.00 0.00 54 1014.0
20260509000348 48 244 2.6 3.5 0.00 0.00 0.00 55 1014.1
20260508235444 48 248 1.7 3.5 0.00 0.00 0.00 54 1014.1
20260508234447 48 274 4.3 7.8 0.00 0.00 0.00 54 1013.8
20260508233447 48 253 1.7 4.3 0.00 0.00 0.00 53 1013.7
20260508232446 48 293 4.3 7.8 0.00 0.00 0.00 51 1013.5
20260508230545 49 277 5.2 7.8 0.00 0.00 0.00 48 1013.4
20260508223746 50 261 3.5 7.0 0.00 0.00 0.00 49 1013.3
20260508221802 50 259 4.3 6.1 0.00 0.00 0.00 45 1013.4
20260508221646 51 264 5.2 7.8 0.00 0.00 0.00 44 1013.3
20260508220647 52 254 7.0 11.3 0.00 0.00 0.00 42 1013.1
20260508220547 52 249 4.3 10.4 0.00 0.00 0.00 41 1013.2
20260508215601 52 240 1.7 2.6 0.00 0.00 0.00 40 1012.9
20260508215446 52 236 3.5 6.1 0.00 0.00 0.00 39 1012.8
20260508214448 53 263 5.2 9.6 0.00 0.00 0.00 39 1012.6
20260508211546 53 302 1.7 3.5 0.00 0.00 0.00 41 1012.3
20260508210546 52 271 0.9 2.6 0.00 0.00 0.00 40 1012.3
20260508204645 53 271 2.6 5.2 0.00 0.00 0.00 40 1012.2
20260508203703 53 242 2.6 5.2 0.00 0.00 0.00 39 1012.1
20260508202647 54 190 2.6 4.3 0.00 0.00 0.00 39 1012.0
20260508201646 53 185 2.6 4.3 0.00 0.00 0.00 39 1012.0
20260508201547 53 264 2.6 4.3 0.00 0.00 0.00 40 1012.1
20260508200544 52 294 2.6 6.1 0.00 0.00 0.00 37 1012.1
20260508195546 53 241 6.1 13.0 0.00 0.00 0.00 37 1011.9
20260508194644 54 236 6.1 11.3 0.00 0.00 0.00 35 1011.9
20260508194547 54 249 6.1 13.0 0.00 0.00 0.00 36 1011.7
20260508193546 55 278 4.3 6.1 0.00 0.00 0.00 37 1011.6
20260508192645 54 191 1.7 2.6 0.00 0.00 0.00 37 1011.9
20260508191646 53 288 4.3 9.6 0.00 0.00 0.00 36 1011.9
20260508185747 53 245 5.2 7.0 0.00 0.00 0.00 37 1012.2
20260508184748 53 257 3.5 9.6 0.00 0.00 0.00 37 1012.1
20260508184645 53 255 7.0 13.0 0.00 0.00 0.00 37 1012.1
20260508183645 53 309 3.5 6.1 0.00 0.00 0.00 35 1012.2
20260508181645 53 294 3.5 6.1 0.00 0.00 0.00 36 1012.4
20260508180644 52 308 4.3 7.0 0.00 0.00 0.00 36 1012.2
20260508175744 53 262 4.3 7.8 0.00 0.00 0.00 36 1012.3
20260508174744 52 253 3.5 8.7 0.00 0.00 0.00 37 1012.4
20260508171745 52 334 2.6 6.1 0.00 0.00 0.00 36 1012.4
20260508165846 52 304 4.3 6.1 0.00 0.00 0.00 35 1012.2
20260508164844 52 306 2.6 7.0 0.00 0.00 0.00 34 1012.3
20260508164747 52 360 0.9 3.5 0.00 0.00 0.00 35 1012.3
20260508163745 51 221 6.1 10.4 0.00 0.00 0.00 34 1012.4
20260508161844 52 266 2.6 5.2 0.00 0.00 0.00 34 1012.3
20260508161744 52 249 5.2 9.6 0.00 0.00 0.00 34 1012.3
20260508154946 52 297 4.3 7.8 0.00 0.00 0.00 36 1012.0
20260508154900 52 331 3.5 5.2 0.00 0.00 0.00 36 1012.0
20260508151945 51 237 7.0 12.2 0.00 0.00 0.00 39 1012.4
20260508151901 51 280 3.5 7.8 0.00 0.00 0.00 38 1012.4
20260508150845 50 329 4.3 6.1 0.00 0.00 0.00 40 1012.4
20260508145846 51 326 2.6 3.5 0.00 0.00 0.00 41 1012.5
20260508145745 51 318 3.5 7.0 0.00 0.00 0.00 41 1012.4
20260508144746 51 248 3.5 5.2 0.00 0.00 0.00 43 1012.4
20260508144647 51 323 2.6 7.8 0.00 0.00 0.00 43 1012.4
20260508143644 50 310 5.2 7.0 0.00 0.00 0.00 44 1012.3
20260508143544 50 285 4.3 10.4 0.00 0.00 0.00 45 1012.4
20260508141546 49 290 3.5 6.1 0.00 0.00 0.00 47 1012.7
20260508140545 49 312 0.0 2.6 0.00 0.00 0.00 48 1012.7
20260508140445 49 321 4.3 6.1 0.00 0.00 0.00 47 1012.9
20260508135444 48 276 1.7 4.3 0.00 0.00 0.00 48 1012.9
20260508135344 48 348 0.9 1.7 0.00 0.00 0.00 48 1013.0
20260508134347 48 229 3.5 5.2 0.00 0.00 0.00 48 1013.2
20260508133345 47 281 4.3 7.8 0.00 0.00 0.00 50 1013.2
20260508132444 47 270 6.1 9.6 0.00 0.00 0.00 50 1013.2
20260508131445 46 261 3.5 7.8 0.00 0.00 0.00 51 1013.2
20260508131401 46 260 4.3 7.8 0.00 0.00 0.00 50 1013.2
20260508130443 46 335 3.5 6.1 0.00 0.00 0.00 51 1013.3
20260508125445 46 335 2.6 5.2 0.00 0.00 0.00 52 1013.3
20260508125344 46 265 2.6 5.2 0.00 0.00 0.00 52 1013.3
20260508124346 46 308 2.6 6.1 0.00 0.00 0.00 52 1013.3
20260508124245 45 269 3.5 8.7 0.00 0.00 0.00 52 1013.3
20260508123247 45 275 4.3 6.1 0.00 0.00 0.00 52 1013.2
20260508123145 45 242 5.2 11.3 0.00 0.00 0.00 53 1013.2
20260508122146 45 254 4.3 7.0 0.00 0.00 0.00 54 1013.2
20260508121146 45 333 2.6 7.0 0.00 0.00 0.00 55 1013.2
20260508120146 45 301 3.5 6.1 0.00 0.00 0.00 55 1013.2
20260508115147 44 275 2.6 6.1 0.00 0.00 0.00 56 1013.2
20260508114146 44 254 3.5 6.1 0.00 0.00 0.00 57 1013.0
20260508113201 44 262 0.9 2.6 0.00 0.00 0.00 57 1012.9
20260508111044 44 262 4.3 7.8 0.00 0.00 0.00 61 1012.8
20260508110946 43 249 4.3 8.7 0.00 0.00 0.00 62 1012.7
20260508110045 42 269 3.5 5.2 0.00 0.00 0.00 67 1012.6
20260508105944 41 326 2.6 5.2 0.00 0.00 0.00 68 1012.6
20260508104946 38 247 0.0 0.9 0.00 0.00 0.00 73 1012.5
20260508103945 37 149 0.0 1.7 0.00 0.00 0.00 74 1012.4
20260508102946 38 157 1.7 2.6 0.00 0.00 0.00 74 1012.3
20260508102844 38 189 1.7 2.6 0.00 0.00 0.00 74 1012.4
20260508101845 38 292 0.0 0.0 0.00 0.00 0.00 75 1012.2
20260508100847 38 8 0.9 1.7 0.00 0.00 0.00 77 1012.0
20260508095846 36 258 0.9 1.7 0.00 0.00 0.00 82 1012.0
20260508095744 36 302 1.7 2.6 0.00 0.00 0.00 83 1012.0